Regional Weather Roundup
Issued by NWS

Home | Current Version | Previous Version | Text Only | Print | Product List | Glossary Off
Versions: 1 2 3 4 5 6 7 8 9 10 11 12 13 14 15 16 17 18 19 20 21 22 23 24 25 26 27 28 29 30 31 32 33 34 35 36 37 38 39 40 41 42 43 44 45 46 47 48 49 50

000
ASUS43 KBIS 061902
RWRND

NORTH DAKOTA REGIONAL WEATHER ROUNDUP
NATIONAL WEATHER SERVICE BISMARCK ND
200 PM CDT FRI MAY 06 2016

NOTE: "FAIR" INDICATES FEW OR NO CLOUDS BELOW 12,000 FEET WITH NO
SIGNIFICANT WEATHER AND/OR OBSTRUCTIONS TO VISIBILITY.


NDZ001>003-009>011-017-062000-
NORTHWEST NORTH DAKOTA

CITY           SKY/WX    TMP DP  RH WIND       PRES   REMARKS
WILLISTON      CLOUDY    67  43  41 N16G23    30.11F
MINOT          CLOUDY    70  43  37 N20G28    30.03R
MINOT AFB      CLOUDY    65  46  51 N13G25    30.02S
$$

NDZ018>021-031>035-040>046-062000-
SOUTHWEST NORTH DAKOTA

CITY           SKY/WX    TMP DP  RH WIND       PRES   REMARKS
BISMARCK       SUNNY     77  49  37 N18G26    29.96S
DICKINSON      MOSUNNY   68  45  43 N21G29    30.04R
GARRISON         N/A     69  46  43 N15G25    30.02
HETTINGER ARPT LGT RAIN  73  46  38 N22G31    30.02S
$$

NDZ004>008-012>016-024-026-027-054-062000-
NORTHEAST NORTH DAKOTA

CITY           SKY/WX    TMP DP  RH WIND       PRES   REMARKS
GRAND FORKS    MOSUNNY   72  43  35 N26G39    29.87R
GRND FRKS AFB  SUNNY     71  41  33 N25G37    29.89R
DEVILS LAKE    SUNNY     69  43  38 N23G32    29.95R
$$

NDZ022-023-025-028>030-036>039-047>053-062000-
SOUTHEAST NORTH DAKOTA

CITY           SKY/WX    TMP DP  RH WIND       PRES   REMARKS
FARGO          CLOUDY    75  44  33 N25G35    29.80R
JAMESTOWN      LGT RAIN  74  45  35 N24G30    29.89S
$$




USA.gov is the U.S. government's official web portal to all federal, state and local government web resources and services.